Location: Port Colborne
(42.8865°N, 79.2509°W)
Time: 11:47:11
(UTC-04:00)

OTV 5 (USA 277) - Pass Details

Date: 28 August 2019
Orbit: 310 x 324 km, 54.5° (Epoch: 08 October)

Event Time Altitude Azimuth Distance (km) Brightness Sun altitude
Rises 20:55:09 0° 262° (W) 2,035 ? -10.6°
Reaches altitude 10° 20:57:23 10° 280° (W) 1,207 ? -11.0°
Maximum altitude 20:59:31 21° 333° (NNW) 782 ? -11.3°
Drops below altitude 10° 21:01:39 10° 25° (NNE) 1,208 ? -11.7°
Sets 21:03:53 0° 43° (NE) 2,037 ? -12.1°
Enters shadow 21:04:02 -1° 44° (NE) 2,100 ? -12.1°
